EW6552 Weather Reports


time (UTC)temp
C
wind
direction
speed
KPH
gust
KPH
rain 1hr
cm
rain 24hr
cm
rain mn
cm
humidity
%
barometer
mb
20260505040040 15 0.0 0.0 0.00 0.00 0.00 80 1009.3
20260505033023 16 0.0 0.0 0.00 0.00 0.00 76 1008.9
20260505030022 17 0.0 0.0 0.00 0.00 0.00 71 1008.6
20260505023017 18 0.0 0.0 0.00 0.00 0.00 68 1008.3
20260505020042 20 0.0 0.0 0.00 0.00 0.00 62 1008.1
20260505013017 21 0.0 0.0 0.00 0.00 0.00 57 1008.1
20260505010022 22 0.0 1.6 0.00 0.00 0.00 58 1008.1
20260505003022 23 0.0 0.0 0.00 0.00 0.00 56 1008.0
20260505000022 23 0.0 0.0 0.00 0.00 0.00 54 1007.8
20260504233017 24 0.0 4.8 0.00 0.00 0.00 55 1008.0
20260504230022 25 0.0 0.0 0.00 0.00 0.00 52 1008.0
20260504223022 26 0.0 1.6 0.00 0.00 0.00 50 1008.3
20260504220041 26 0.0 1.6 0.00 0.00 0.00 49 1008.4
20260504213022 26 0.0 0.0 0.00 0.00 0.00 49 1008.8
20260504210016 25 0.0 0.0 0.00 0.00 0.00 54 1008.9
20260504203022 25 0.0 0.0 0.00 0.00 0.00 57 1009.3
20260504200017 23 0.0 0.0 0.00 0.00 0.00 61 1009.6
20260504193022 23 0.0 1.6 0.00 0.00 0.00 62 1009.6
20260504190022 22 0.0 1.6 0.00 0.00 0.00 63 1010.0
20260504183022 21 0.0 1.6 0.00 0.00 0.00 66 1010.1
20260504180037 20 0.0 1.6 0.00 0.00 0.00 71 1010.2
20260504173017 19 0.0 0.0 0.00 0.00 0.00 72 1010.2